Change the Weather History Date:

Friday, August 29, 2014

  Actual Average Record
Temperature  
Mean Temperature 73 °F -  
Max Temperature 81 °F 79 °F 84 °F (2004)
Min Temperature 65 °F 63 °F 57 °F (1996)
Cooling Degree Days 8    
Growing Degree Days 23 (Base 50)    
Moisture  
Dew Point 65 °F    
Average Humidity 82    
Maximum Humidity 96    
Minimum Humidity 50    
Precipitation  
Precipitation 0.00 in 0.46 in - ()
Sea Level Pressure  
Sea Level Pressure 29.98 in    
Wind  
Wind Speed 6 mph ()    
Max Wind Speed 15 mph    
Max Gust Speed -    
Visibility 8.0 miles    
Events Rain    
Averages and records for this station are not official NWS values.
T = Trace of Precipitation, MM = Missing Value Source: Averaged Metar Reports

Daily Weather History Graph

Daily Weather History Graph

Search for Another Location

Airport or City:

Trip Planner

Search our weather history database for the weather conditions in past years. The results will help you decide how hot, cold, wet, or windy it might be!

Date:

Astronomy

Aug. 29, 2014 Rise Set
Actual Time 5:27 AM CST 5:47 PM CST
Civil Twilight 5:06 AM CST 6:08 PM CST
Nautical Twilight 4:41 AM CST 6:33 PM CST
Astronomical Twilight 4:16 AM CST 6:58 PM CST
Moon 8:28 AM CST (8/29) 8:37 PM CST (8/29)
Length of Visible Light 13h 02m
Length of Day
12h 19m
Waxing Crescent, 15% of the Moon is Illuminated
Aug 29
Waxing Crescent
Sep 2
First Quarter
Sep 8
Full
Sep 15
Last Quarter
Sep 24
New

Hourly Weather History & Observations

Time (CST) Temp. Dew Point Humidity Pressure Visibility Wind Dir Wind Speed Gust Speed Precip Events Conditions
12:00 AM 66 °F 65 °F 96% 29.91 in 12 mi West 5.8 mph - -   Mostly Cloudy
12:00 AM 66.2 °F 64.4 °F 94% 30.04 in - West 5.8 mph - N/A   Clear
1:00 AM 66.2 °F 64.4 °F 94% 30.02 in 6.2 mi ENE 2.3 mph - N/A   Mostly Cloudy
2:00 AM 66.2 °F 64.4 °F 94% 30.00 in - East 3.5 mph - N/A   Clear
3:00 AM 66 °F 64 °F 92% 29.89 in 12 mi ENE 3.5 mph - -   Mostly Cloudy
3:00 AM 66.2 °F 64.4 °F 94% 30.00 in - ENE 3.5 mph - N/A   Clear
4:00 AM 66.2 °F 64.4 °F 94% 30.00 in - NE 2.3 mph - N/A   Clear
5:00 AM 66.2 °F 64.4 °F 94% 30.00 in - East 4.6 mph - N/A   Clear
6:00 AM 66 °F 64 °F 91% 29.90 in 12 mi East 5.8 mph - -   Mostly Cloudy
6:00 AM 66.2 °F 64.4 °F 94% 30.01 in - East 5.8 mph - N/A   Clear
7:00 AM 68.0 °F 62.6 °F 83% 30.01 in - East 8.1 mph - N/A   Clear
8:00 AM 73.4 °F 62.6 °F 69% 30.02 in - East 8.1 mph - N/A   Clear
9:00 AM 77 °F 63 °F 52% 29.89 in 12 mi SE 5.8 mph - -   Overcast
9:00 AM 77.0 °F 62.6 °F 61% 30.03 in - SE 5.8 mph - N/A   Clear
10:00 AM 78.8 °F 62.6 °F 57% 30.03 in 6.2 mi WSW 6.9 mph - N/A   Mostly Cloudy
11:00 AM 78.8 °F 62.6 °F 57% 30.03 in 6.2 mi WSW 10.4 mph - N/A   Mostly Cloudy
12:00 PM 80 °F 65 °F 50% 29.86 in 12 mi West 11.5 mph - -   Overcast
12:00 PM 78.8 °F 64.4 °F 61% 30.00 in 6.2 mi West 11.5 mph - N/A   Mostly Cloudy
1:00 PM 75.2 °F 68.0 °F 78% 29.98 in 6.2 mi SW 12.7 mph - N/A   Mostly Cloudy
2:00 PM 75.2 °F 68.0 °F 78% 29.96 in 6.2 mi WSW 15.0 mph - N/A   Mostly Cloudy
3:00 PM 77 °F 67 °F 65% 29.81 in 12 mi WSW 11.5 mph - -   Partly Cloudy
3:00 PM 77.0 °F 68.0 °F 74% 29.95 in 6.2 mi WSW 11.5 mph - N/A   Scattered Clouds
4:00 PM 73.4 °F 68.0 °F 83% 29.96 in 6.2 mi WSW 11.5 mph - N/A   Mostly Cloudy
5:00 PM 71.6 °F 68.0 °F 88% 29.97 in 6.2 mi WSW 9.2 mph - N/A   Mostly Cloudy
6:00 PM 70 °F 67 °F 88% 29.88 in 6 mi West 9.2 mph - - Rain Light Rain
6:00 PM 69.8 °F 68.0 °F 94% 30.00 in 6.2 mi West 9.2 mph - N/A Rain Light Rain
7:00 PM 69.8 °F 66.2 °F 88% 30.02 in 6.2 mi West 4.6 mph - N/A   Mostly Cloudy
8:00 PM 69.8 °F 66.2 °F 88% 30.04 in 6.2 mi West 5.8 mph - N/A   Mostly Cloudy
9:00 PM 69 °F 67 °F 93% 29.91 in 12 mi SW 2.3 mph - -   Overcast
9:00 PM 69.8 °F 68.0 °F 94% 30.06 in 6.2 mi SW 2.3 mph - N/A   Mostly Cloudy
10:00 PM 69.8 °F 68.0 °F 94% 30.06 in 6.2 mi Calm Calm - N/A   Mostly Cloudy
11:00 PM 68.0 °F 66.2 °F 94% 30.05 in 6.2 mi Calm Calm - N/A   Mostly Cloudy